Back to catalog

KUIPER-00046

AliveCommunicationsLEO
NORAD 64506·PAYLOAD·🇺🇸 United States

Launched Jun 23, 2025 from Cape Canaveral Space Force Station

Loading…

Next Passes (next 24 hours)

TLE

FreshSource: CelesTrak SupGP

Epoch: Sep 14, 2026, 15:46 UTC

1 64506C 25134G   26257.65706019  .00001278  00000+0  16734-3 0  2570
2 64506  51.8966 127.4096 0001082 100.0402  14.9750 14.79926062    18

Track KUIPER-00046 in real time with AllMySat

Download on the App Store